| time (UTC) | temp F | wind direction | speed MPH | gust MPH | rain 1hr in | rain 24hr in | rain mn in | humidity % | barometer mb |
| 20260901114006 | 70 | 251 | 3.0 | 12.0 | 0.00 | 0.00 | 0.00 | 62 | 1021.5 |
| 20260901113006 | 70 | 296 | 3.0 | 10.0 | 0.00 | 0.00 | 0.00 | 62 | 1021.5 |
| 20260901112006 | 69 | 237 | 3.0 | 9.0 | 0.00 | 0.00 | 0.00 | 61 | 1021.5 |
| 20260901111006 | 70 | 268 | 3.0 | 9.0 | 0.00 | 0.00 | 0.00 | 61 | 1021.5 |
| 20260901110006 | 69 | 203 | 3.0 | 10.0 | 0.00 | 0.00 | 0.00 | 63 | 1021.5 |
| 20260901103006 | 68 | 302 | 4.0 | 9.0 | 0.00 | 0.00 | 0.00 | 63 | 1021.8 |
| 20260901102007 | 68 | 287 | 2.0 | 8.0 | 0.00 | 0.00 | 0.00 | 63 | 1021.8 |
| 20260901100006 | 67 | 310 | 3.0 | 8.0 | 0.00 | 0.00 | 0.00 | 66 | 1021.9 |
| 20260901095006 | 67 | 282 | 3.0 | 8.0 | 0.00 | 0.00 | 0.00 | 67 | 1021.9 |
| 20260901094006 | 66 | 11 | 2.0 | 7.0 | 0.00 | 0.00 | 0.00 | 68 | 1022.0 |
| 20260901093006 | 66 | 312 | 2.0 | 7.0 | 0.00 | 0.00 | 0.00 | 71 | 1022.1 |
| 20260901092006 | 65 | 333 | 1.0 | 7.0 | 0.00 | 0.00 | 0.00 | 73 | 1022.0 |
| 20260901091006 | 64 | 251 | 2.0 | 6.0 | 0.00 | 0.00 | 0.00 | 75 | 1022.1 |
| 20260901090006 | 63 | 298 | 3.0 | 9.0 | 0.00 | 0.00 | 0.00 | 78 | 1022.0 |
| 20260901085006 | 62 | 301 | 2.0 | 7.0 | 0.00 | 0.00 | 0.00 | 81 | 1022.0 |
| 20260901084006 | 62 | 295 | 4.0 | 7.0 | 0.00 | 0.00 | 0.00 | 84 | 1021.9 |
| 20260901083006 | 61 | 297 | 2.0 | 6.0 | 0.00 | 0.00 | 0.00 | 85 | 1021.9 |
| 20260901081007 | 60 | 288 | 2.0 | 3.0 | 0.00 | 0.00 | 0.00 | 87 | 1021.8 |
| 20260901074006 | 58 | 331 | 1.0 | 3.0 | 0.00 | 0.00 | 0.00 | 91 | 1021.5 |
| 20260901073006 | 57 | 277 | 0.0 | 0.0 | 0.00 | 0.00 | 0.00 | 93 | 1021.3 |
| 20260901071005 | 54 | 283 | 0.0 | 0.0 | 0.00 | 0.00 | 0.00 | 93 | 1021.5 |
| 20260901065006 | 54 | 284 | 0.0 | 0.0 | 0.00 | 0.00 | 0.00 | 92 | 1021.3 |
| 20260901064006 | 54 | 283 | 0.0 | 0.0 | 0.00 | 0.00 | 0.00 | 92 | 1021.3 |
| 20260901063005 | 54 | 283 | 0.0 | 0.0 | 0.00 | 0.00 | 0.00 | 92 | 1021.2 |
| 20260901062005 | 53 | 283 | 0.0 | 0.0 | 0.00 | 0.00 | 0.00 | 91 | 1021.2 |
| 20260901061005 | 53 | 283 | 0.0 | 0.0 | 0.00 | 0.00 | 0.00 | 91 | 1021.0 |
| 20260901054005 | 53 | 283 | 0.0 | 0.0 | 0.00 | 0.00 | 0.00 | 92 | 1020.7 |
| 20260901053006 | 53 | 283 | 0.0 | 0.0 | 0.00 | 0.00 | 0.00 | 92 | 1020.7 |
| 20260901051004 | 53 | 286 | 0.0 | 3.0 | 0.00 | 0.00 | 0.00 | 91 | 1020.7 |
| 20260901050005 | 53 | 285 | 2.0 | 3.0 | 0.00 | 0.00 | 0.00 | 91 | 1020.7 |
| 20260901045005 | 53 | 277 | 1.0 | 3.0 | 0.00 | 0.00 | 0.00 | 91 | 1020.6 |
| 20260901044005 | 53 | 276 | 0.0 | 2.0 | 0.00 | 0.00 | 0.00 | 90 | 1020.6 |
| 20260901043005 | 53 | 277 | 0.0 | 2.0 | 0.00 | 0.00 | 0.00 | 89 | 1020.5 |
| 20260901041005 | 53 | 277 | 1.0 | 2.0 | 0.00 | 0.00 | 0.00 | 90 | 1020.5 |
| 20260901040005 | 54 | 275 | 0.0 | 2.0 | 0.00 | 0.00 | 0.00 | 88 | 1020.4 |
| 20260901034005 | 54 | 275 | 0.0 | 2.0 | 0.00 | 0.00 | 0.00 | 88 | 1020.5 |
| 20260901032006 | 54 | 267 | 1.0 | 3.0 | 0.00 | 0.00 | 0.00 | 88 | 1020.5 |
| 20260901031006 | 54 | 277 | 0.0 | 0.0 | 0.00 | 0.00 | 0.00 | 88 | 1020.6 |
| 20260901030005 | 54 | 280 | 0.0 | 0.0 | 0.00 | 0.00 | 0.00 | 87 | 1020.5 |
| 20260901025005 | 55 | 276 | 0.0 | 0.0 | 0.00 | 0.00 | 0.00 | 87 | 1020.5 |
| 20260901023005 | 55 | 278 | 0.0 | 0.0 | 0.00 | 0.00 | 0.00 | 87 | 1020.5 |
| 20260901022005 | 55 | 278 | 0.0 | 0.0 | 0.00 | 0.00 | 0.00 | 87 | 1020.4 |
| 20260901021006 | 55 | 277 | 0.0 | 0.0 | 0.00 | 0.00 | 0.00 | 86 | 1020.3 |
| 20260901020005 | 55 | 277 | 0.0 | 0.0 | 0.00 | 0.00 | 0.00 | 85 | 1020.4 |
| 20260901015005 | 56 | 275 | 0.0 | 0.0 | 0.00 | 0.00 | 0.00 | 85 | 1020.4 |
| 20260901014005 | 56 | 276 | 0.0 | 3.0 | 0.00 | 0.00 | 0.00 | 85 | 1020.5 |
| 20260901013005 | 56 | 273 | 0.0 | 1.0 | 0.00 | 0.00 | 0.00 | 84 | 1020.4 |
| 20260901011005 | 56 | 273 | 0.0 | 3.0 | 0.00 | 0.00 | 0.00 | 83 | 1020.3 |
| 20260901010005 | 57 | 272 | 1.0 | 3.0 | 0.00 | 0.02 | 0.00 | 83 | 1020.3 |
| 20260901005005 | 57 | 263 | 1.0 | 3.0 | 0.00 | 0.02 | 0.00 | 83 | 1020.2 |
| 20260901004005 | 56 | 245 | 1.0 | 3.0 | 0.00 | 0.02 | 0.00 | 83 | 1020.3 |
| 20260901003006 | 57 | 272 | 0.0 | 3.0 | 0.00 | 0.02 | 0.00 | 83 | 1020.2 |
| 20260901002005 | 57 | 281 | 1.0 | 5.0 | 0.00 | 0.02 | 0.00 | 82 | 1020.2 |
| 20260901000004 | 57 | 298 | 2.0 | 3.0 | 0.00 | 0.02 | 0.00 | 81 | 1020.0 |
| 20260831234005 | 57 | 304 | 2.0 | 5.0 | 0.00 | 0.02 | 0.00 | 80 | 1020.2 |
| 20260831233005 | 58 | 302 | 3.0 | 5.0 | 0.00 | 0.02 | 0.00 | 80 | 1020.1 |
| 20260831232005 | 58 | 300 | 3.0 | 6.0 | 0.00 | 0.02 | 0.00 | 79 | 1020.2 |
| 20260831231004 | 58 | 300 | 3.0 | 5.0 | 0.00 | 0.03 | 0.00 | 79 | 1020.1 |
| 20260831230005 | 58 | 302 | 3.0 | 7.0 | 0.00 | 0.12 | 0.00 | 79 | 1020.2 |
| 20260831225005 | 58 | 288 | 4.0 | 7.0 | 0.00 | 0.12 | 0.12 | 79 | 1020.1 |
| 20260831224005 | 59 | 302 | 3.0 | 7.0 | 0.00 | 0.17 | 0.12 | 78 | 1020.1 |
| 20260831223005 | 59 | 297 | 4.0 | 7.0 | 0.00 | 0.18 | 0.12 | 77 | 1020.1 |
| 20260831222005 | 59 | 302 | 5.0 | 7.0 | 0.00 | 0.18 | 0.12 | 77 | 1020.0 |
| 20260831221005 | 60 | 305 | 3.0 | 7.0 | 0.00 | 0.18 | 0.12 | 76 | 1019.8 |
| 20260831220005 | 60 | 304 | 3.0 | 8.0 | 0.00 | 0.18 | 0.12 | 76 | 1019.9 |
| 20260831215005 | 60 | 303 | 5.0 | 9.0 | 0.00 | 0.18 | 0.12 | 75 | 1019.8 |
| 20260831213005 | 60 | 309 | 3.0 | 7.0 | 0.00 | 0.18 | 0.12 | 73 | 1019.7 |
| 20260831212004 | 60 | 313 | 3.0 | 7.0 | 0.00 | 0.18 | 0.12 | 73 | 1019.6 |
| 20260831211005 | 61 | 324 | 3.0 | 8.0 | 0.00 | 0.18 | 0.12 | 72 | 1019.6 |
| 20260831210006 | 61 | 308 | 5.0 | 8.0 | 0.00 | 0.18 | 0.12 | 71 | 1019.5 |
| 20260831205004 | 61 | 324 | 5.0 | 9.0 | 0.00 | 0.18 | 0.12 | 71 | 1019.3 |
| 20260831203004 | 62 | 309 | 3.0 | 7.0 | 0.00 | 0.18 | 0.12 | 72 | 1019.1 |
| 20260831202005 | 62 | 307 | 3.0 | 7.0 | 0.00 | 0.18 | 0.12 | 72 | 1018.9 |
| 20260831201005 | 62 | 319 | 3.0 | 9.0 | 0.00 | 0.18 | 0.12 | 72 | 1018.7 |
| 20260831200004 | 63 | 324 | 3.0 | 8.0 | 0.00 | 0.18 | 0.12 | 73 | 1018.7 |
| 20260831195004 | 63 | 351 | 2.0 | 6.0 | 0.00 | 0.18 | 0.12 | 73 | 1018.6 |
| 20260831193005 | 64 | 304 | 2.0 | 3.0 | 0.00 | 0.18 | 0.12 | 75 | 1018.3 |
| 20260831192004 | 64 | 302 | 3.0 | 5.0 | 0.00 | 0.18 | 0.12 | 74 | 1018.1 |
| 20260831191004 | 65 | 312 | 2.0 | 7.0 | 0.00 | 0.18 | 0.12 | 74 | 1018.0 |
| 20260831185005 | 66 | 316 | 2.0 | 6.0 | 0.00 | 0.18 | 0.12 | 72 | 1017.8 |
| 20260831184004 | 66 | 307 | 2.0 | 5.0 | 0.00 | 0.18 | 0.12 | 71 | 1017.6 |
| 20260831182004 | 67 | 304 | 4.0 | 9.0 | 0.00 | 0.18 | 0.12 | 70 | 1017.5 |
| 20260831181004 | 68 | 295 | 5.0 | 10.0 | 0.00 | 0.18 | 0.12 | 70 | 1017.4 |
| 20260831180004 | 68 | 301 | 5.0 | 12.0 | 0.00 | 0.18 | 0.12 | 69 | 1017.3 |
| 20260831175004 | 68 | 294 | 6.0 | 10.0 | 0.00 | 0.18 | 0.12 | 69 | 1017.2 |
| 20260831173004 | 68 | 299 | 6.0 | 12.0 | 0.00 | 0.18 | 0.12 | 73 | 1017.0 |
| 20260831172004 | 68 | 280 | 6.0 | 12.0 | 0.00 | 0.18 | 0.12 | 72 | 1017.0 |
| 20260831171004 | 69 | 305 | 4.0 | 12.0 | 0.00 | 0.18 | 0.12 | 70 | 1016.8 |
| 20260831170004 | 69 | 307 | 4.0 | 9.0 | 0.00 | 0.18 | 0.12 | 73 | 1016.8 |
| 20260831165004 | 69 | 278 | 4.0 | 14.0 | 0.00 | 0.18 | 0.12 | 71 | 1016.6 |
| 20260831164005 | 69 | 286 | 5.0 | 10.0 | 0.00 | 0.18 | 0.12 | 70 | 1016.5 |
| 20260831163004 | 70 | 243 | 5.0 | 12.0 | 0.00 | 0.18 | 0.12 | 68 | 1016.5 |
| 20260831162004 | 70 | 314 | 5.0 | 12.0 | 0.00 | 0.18 | 0.12 | 72 | 1016.4 |
| 20260831161004 | 70 | 339 | 3.0 | 12.0 | 0.00 | 0.18 | 0.12 | 72 | 1016.4 |
| 20260831160004 | 70 | 298 | 5.0 | 15.0 | 0.00 | 0.18 | 0.12 | 73 | 1016.3 |
| 20260831154004 | 70 | 313 | 8.0 | 17.0 | 0.00 | 0.18 | 0.12 | 72 | 1016.2 |
| 20260831153004 | 71 | 303 | 7.0 | 17.0 | 0.00 | 0.18 | 0.12 | 71 | 1016.1 |
| 20260831152004 | 70 | 304 | 6.0 | 14.0 | 0.00 | 0.18 | 0.12 | 72 | 1015.9 |
| 20260831151004 | 69 | 305 | 6.0 | 14.0 | 0.00 | 0.18 | 0.12 | 73 | 1015.9 |
| 20260831150004 | 70 | 293 | 5.0 | 12.0 | 0.00 | 0.18 | 0.12 | 72 | 1015.8 |
| 20260831145004 | 70 | 267 | 3.0 | 10.0 | 0.00 | 0.18 | 0.12 | 72 | 1015.8 |
| 20260831143005 | 70 | 249 | 5.0 | 14.0 | 0.00 | 0.18 | 0.12 | 71 | 1015.7 |
| 20260831141004 | 74 | 298 | 5.0 | 12.0 | 0.00 | 0.18 | 0.12 | 64 | 1015.3 |
| 20260831135006 | 73 | 283 | 6.0 | 12.0 | 0.00 | 0.18 | 0.12 | 66 | 1015.1 |
| 20260831134007 | 72 | 264 | 3.0 | 12.0 | 0.00 | 0.18 | 0.12 | 71 | 1015.1 |
| 20260831133006 | 73 | 296 | 4.0 | 12.0 | 0.00 | 0.18 | 0.12 | 68 | 1014.9 |
| 20260831131006 | 74 | 283 | 6.0 | 15.0 | 0.00 | 0.18 | 0.12 | 66 | 1014.7 |
| 20260831130006 | 74 | 301 | 6.0 | 12.0 | 0.00 | 0.18 | 0.12 | 63 | 1014.5 |
| 20260831125006 | 74 | 294 | 8.0 | 14.0 | 0.00 | 0.18 | 0.12 | 61 | 1014.5 |
| 20260831124006 | 74 | 307 | 5.0 | 12.0 | 0.00 | 0.18 | 0.12 | 66 | 1014.4 |
| 20260831123006 | 74 | 328 | 5.0 | 18.0 | 0.00 | 0.18 | 0.12 | 61 | 1014.2 |
| 20260831122004 | 74 | 299 | 8.0 | 18.0 | 0.00 | 0.18 | 0.12 | 62 | 1014.0 |
| 20260831121006 | 74 | 300 | 8.0 | 14.0 | 0.00 | 0.18 | 0.12 | 63 | 1013.9 |